Location: Helsinki
(60.1699°N, 24.9384°E)
Time: 13:45:36
(UTC+02:00)

Tiros 1 - Pass Details

Date: 05 October 2022
Orbit: 629 x 662 km, 48.4° (Epoch: 07 December)

Event Time Altitude Azimuth Distance (km) Brightness Sun altitude
Rises 03:43:16 0° 253° (WSW) 2,990 - -27.2°
Reaches altitude 10° 03:46:14 10° 235° (SW) 2,073 - -27.0°
Maximum altitude 03:49:27 18° 192° (SSW) 1,592 - -26.7°
Drops below altitude 10° 03:52:40 10° 150° (SSE) 2,059 - -26.4°
Exits shadow 03:54:16 - 138° (SE) 2,522 10.2 -26.3°
Sets 03:55:36 0° 131° (SE) 2,962 10.6 -26.1°
